User: anonymous   Login
Location: Killam
(52.7910°N, 111.8608°W)
Time: 22:16:44
(UTC+00:00)
Language:

FENGYUN 1C DEB - Orbit

View from above orbital plane
View from above orbital plane
View from above satellite
View from above satellite

Ground track
Ground track

The orbit data is extracted from the following two-line orbital elements,

1 30831U 99025AVR 24146.55845749  .00001690  00000-0  67962-3 0  9993
2 30831  99.2630 255.1376 0056626 221.1041 138.5866 14.28718517571588
Epoch (UTC): 25 May 2024 13:24:10
Eccentricity: 0.0056626
inclination: 99.2630°
perigee height: 755 km
apogee height: 836 km
right ascension of ascending node: 255.1376°
argument of perigee: 221.1041°
revolutions per day: 14.28718517
mean anomaly at epoch: 138.5866°
orbit number at epoch: 57158

The dashed part of the orbit path shows where the satellite is in the earth's shadow,  

DLR